Zurück zum Katalog

DMSP 5D-2 F11 DEB

AktivSSO
NORAD 29074·DEBRIS·🇺🇸 United States

Gestartet Nov 28, 1991 von Vandenberg Space Force Base

Loading…

Nächste Überflüge (nächste 24 Stunden)

TLE

AktuellSource: Space-Track

Epoche: Sep 13, 2026, 17:21 UTC

1 29074U 91082BV  26256.72316286  .00005686  00000-0  11926-2 0  9994
2 29074  98.5730 351.5024 0006214 230.6211 129.4438 14.60068399143515

Verfolge DMSP 5D-2 F11 DEB in Echtzeit mit AllMySat

Download on the App Store